sat.trackr.live / text

‹ back to catalog

STARLINK-5351

NORAD 56511 · 2023-065J

PAYLOAD ACTIVE UNKNOWN

§ Identity

Operator
Country
US
Launch date
2023-05-14
Launch site
AFETR
Launch vehicle
Mass (kg)
RCS (m²)

Purposes: comms

External: N2YO · Heavens-Above · Gunter

§ Orbital elements

Epoch: 2026-05-24T11:40:30.550944Z

Period
94.27 min
Inclination
43.0022°
Eccentricity
0.0001149
Mean motion
15.27577944 rev/d
Perigee alt
482.3 km
Apogee alt
483.8 km
Semi-major
6,861.2 km
B*
3.0505e-5
RAAN
144.2630°
Arg perigee
269.9658°
Mean anomaly
90.1062°
Rev number
16,819

§ Raw data

STARLINK-53511 56511U 23065J   26144.48646471  .00000577  00000+0  30505-4 0  99962 56511  43.0022 144.2630 0001149 269.9658  90.1062 15.27577944168195

JSON: /api/v1/satellites/56511 · /tle

For live sub-satellite position, see the globe view (requires WebGL).

§ Visibility from observer

Set your observer location to see the next 7 days of passes ≥ 10°. The values pass through the URL so the page stays shareable.

No JS? Fill the form by hand. The geolocation button needs JavaScript.